SCP
0 0 0 0 0 0 0 0 0 0 0 0 0 0 0 0 0 0 0 0 0 0 0 0 0 0 0 0 0 0 0 0 0 0 -0 -0 0 0 0 0 0 0 0 0 0 0 0 0 0 -0 0 -0 0 0
0 0 0 0 0 0 0 0 0 0 0 0 0 0 0 0 0 0 0 0 0 0 0 0 -0 -0 -0 -0 0 0 0 0 0 -0 0 0 0 0 0 -0 0 0 0 0 0 0 0 0 -0 -0 -0 0 0 0
0 0 0 0 0 0 0 0 0 0 0 0 0 0 0 0 0 0 0 0 0 0 0 0 0 0 0 0 -0 0 0 0 0 0 0 0 0 0 -0 0 0 0 0 0 0 0 -0 0 -0 -0 -0 0 0 0
0 0 0 0 0 0 0 0 0 0 0 0 0 0 0 0 0 0 0 0 0 0 0 0 0 0 -0 0 -0 -0 0 0 0 0 0 0 0 0 0 0 0 0 0 0 0 -0 -0 0 -0 -0 0 0 0 0
0 0 0 0 0 0 0 0 0 0 0 0 0 0 0 0 0 0 0 0 0 0 0 0 0 0 0 0 -0 -0 -0 0 0 0 0 0 0 0 0 0 0 0 0 0 0 -0 -0 -0 0 0 0 0 0 0
0 0 0 0 0 0 0 0 0 0 0 0 0 0 0 0 0 0 0 0 0 0 0 0 0 0 -0 -0 0 -0 -0 0 0 0 0 0 0 0 0 0 -0 -0 -0 0 -0 -0 0 -0 0 0 0 0 0 0
0 0 0 0 0 0 0 0 0 0 0 0 0 0 0 0 0 0 0 0 0 0 0 0 0 0 -0 0 0 0 -0 0 0 0 0 0 0 0 -0 0 0 -0 -0 -0 -0 0 -0 -0 0 0 0 0 0 0
0 0 0 0 0 0 0 0 0 0 0 0 0 0 0 0 0 0 0 0 0 0 0 0 0 0 0 0 0 0 0 0 0 0 0 0 0 0 -0 0 0 -0 -0 -0 -0 0 -0 -0 0 0 0 0 0 0
0 0 0 0 0 0 0 0 0 0 0 0 0 0 0 0 0 0 0 -0 0 0 0 0 0 0 0 0 0 0 0 0 0 0 0 0 0 0 -0 -0 -0 -0 -0 0 -0 -0 -0 0 0 0 0 0 0 0
0 0 0 0 0 0 0 0 0 0 0 0 0 0 0 0 0 0 0 0 0 0 0 0 0 0 -0 -0 0 0 0 0 0 0 0 0 0 0 0 -0 -0 -0 -0 -0 0 0 0 0 0 0 0 0 0 0
0 0 0 0 0 0 0 0 0 0 0 0 0 0 0 0 0 0 0 0 0 0 0 0 0 0 0 0 0 0 0 0 0 0 0 0 -0 0 0 0 -0 -0 -0 0 0 0 -0 0 0 0 0 0 0 0
0 0 0 0 0 0 0 0 0 0 0 0 0 0 0 0 0 0 0 0 0 0 0 0 0 0 0 0 0 0 0 0 0 0 0 -0 -0 0 -0 0 -0 0 -0 0 0 0 0 -0 -0 -0 -0 0 -0 0
0 0 0 0 0 0 0 0 0 0 0 0 0 0 0 0 0 0 0 0 0 0 0 0 0 0 0 0 0 0 0 0 0 0 0 0 0 0 0 -0 -0 -0 -0 0 0 0 0 0 0 -0 -0 0 0 0
0 0 0 0 0 0 0 0 0 0 0 0 0 0 0 0 0 0 0 0 0 0 0 0 0 0 0 0 0 0 0 0 -0 -0 0 0 -0 -0 0 -0 -0 -0 -0 0 0 0 0 0 0 0 0 0 0 0
0 0 0 0 0 0 0 0 0 0 0 0 0 0 0 0 0 0 0 0 0 0 0 0 0 0 0 0 0 0 0 -0 -0 -0 0 0 0 -0 -0 -0 -0 -0 0 0 0 0 0 -0 -0 0 0 0 0 0
0 0 0 0 0 0 0 0 0 0 0 0 0 0 0 0 0 0 0 0 0 0 0 0 0 0 0 0 0 0 0 0 0 0 -0 -0 -0 -0 0 -0 -0 -0 -0 0 0 0 -0 0 -0 0 0 0 0 0
0 0 0 0 0 0 0 0 0 0 0 0 0 0 0 0 0 0 0 0 0 0 0 0 0 0 0 0 0 0 0 0 0 0 0 0 -0 -0 0 0 -0 -0 -0 -0 0 0 0 -0 -0 0 0 0 0 0
0 0 0 0 0 0 0 0 0 0 0 0 0 0 -0 0 0 0 0 0 0 0 0 0 0 0 0 0 0 0 0 0 0 0 0 0 -0 -0 -0 0 -0 -0 0 -0 -0 -0 -0 -0 0 0 -0 -0 0 0
0 0 -0 -0 0 0 0 0 0 0 0 0 0 0 0 0 0 0 0 0 0 0 0 0 0 0 0 0 0 0 0 0 0 0 -0 0 0 -0 -0 -0 -0 -0 -0 -0 -0 0 -0 -0 -0 -0 -0 0 0 0
-0 -0 0 0 0 0 0 0 0 0 0 0 0 0 0 0 0 0 0 0 0 0 0 0 0 0 0 0 0 0 0 0 0 0 0 0 0 -0 0 -0 -0 -0 -0 -0 -0 0 0 -0 -0 -0 -0 -0 0 0
0 0 0 0 0 0 0 0 0 0 0 0 0 -0 -0 0 0 0 0 0 0 0 0 0 0 0 0 0 0 0 0 0 -0 0 0 0 0 0 -0 0 0 0 0 -0 -0 -0 0 0 -0 -0 -0 -0 0 0
0 0 0 0 0 0 -0 0 0 0 0 0 0 -0 -0 0 0 0 0 0 0 0 0 0 0 0 0 0 0 0 0 0 0 -0 -0 0 0 0 0 0 0 0 0 -0 0 -0 -0 0 0 0 0 0 0 0
0 0 0 0 0 0 0 0 0 0 0 0 0 0 -0 -0 0 -0 0 0 0 0 0 0 0 0 0 0 0 0 0 0 0 0 0 0 0 0 0 0 0 0 0 0 0 -0 -0 -0 0 -0 -0 0 0 0
-0 0 0 0 0 0 0 0 0 0 0 0 0 0 0 0 0 -0 0 0 0 0 0 0 0 0 0 0 0 0 0 0 0 0 0 0 0 0 0 0 0 0 0 0 0 0 -0 -0 -0 -0 -0 0 0 0
0 0 0 -0 0 0 0 0 0 0 0 0 0 0 0 0 0 0 0 0 -0 0 0 0 0 0 0 0 0 0 0 0 0 0 0 0 0 0 0 0 0 0 0 0 0 0 0 0 -0 -0 -0 -0 -0 -0
0 0 0 0 0 0 0 0 0 0 -0 -0 0 0 0 0 0 0 0 -0 -0 -0 -0 -0 0 0 0 0 0 0 0 0 0 0 0 0 0 0 0 0 0 0 0 0 0 0 -0 -0 -0 -0 -0 -0 -0 -0
0 0 0 0 0 0 0 0 0 0 -0 -0 -0 0 -0 -0 0 0 0 -0 -0 -0 -0 -0 0 0 0 0 0 0 0 0 0 0 0 0 0 0 0 0 0 0 0 0 0 0 0 0 0 -0 -0 -0 -0 -0
0 0 0 0 0 0 0 0 0 0 0 0 -0 -0 -0 -0 0 0 0 -0 -0 -0 -0 -0 -0 -0 0 0 0 0 0 0 0 0 0 0 0 0 0 0 0 0 0 0 0 0 0 0 0 0 0 0 0 0
0 0 0 0 0 0 0 0 0 0 0 0 -0 -0 0 0 0 0 0 0 0 -0 0 0 -0 -0 -0 0 0 0 0 0 -0 0 0 0 0 0 0 0 0 0 0 0 0 0 0 0 0 0 0 0 0 0
0 0 0 0 0 0 0 0 0 0 0 0 0 0 0 -0 0 0 0 0 0 0 -0 0 0 -0 -0 -0 -0 0 0 0 0 0 0 0 0 0 0 0 0 0 0 0 0 0 0 0 0 0 0 0 0 0
0 0 0 0 0 0 0 0 0 0 0 0 0 0 0 0 0 0 0 0 0 0 0 0 0 -0 -0 -0 -0 -0 0 0 0 0 0 0 0 0 0 0 0 0 0 0 0 0 0 0 0 0 0 0 0 0
0 0 0 0 0 0 0 0 0 0 0 0 0 0 0 0 0 0 0 0 0 0 0 0 0 0 0 -0 0 0 0 0 -0 0 0 0 0 0 0 0 0 0 0 0 0 0 0 0 0 0 0 0 0 0
0 0 0 0 0 0 0 0 0 0 0 0 0 0 0 0 0 0 0 0 0 0 0 0 0 0 0 0 0 0 0 0 0 -0 -0 -0 0 0 0 0 0 0 0 0 0 0 0 0 0 0 0 0 0 0
Wind_Speed_500mb
43 45 50 53 56 59 61 62 61 55 50 45 41 37 34 19 11 20 29 29 31 31 54 52 44 25 17 12 5 18 21 2 5 10 6 6 6 7 7 8 13 5 7 4 7 10 8 15 20 5 16 40 45 41
44 47 52 57 61 60 59 58 54 50 48 43 41 37 32 23 19 20 31 27 24 36 54 71 79 77 76 71 39 14 11 18 6 4 1 4 6 5 9 7 7 6 4 6 6 6 21 28 28 45 53 46 54 40
45 50 54 59 59 55 56 56 51 48 46 43 42 39 32 27 20 24 29 30 32 31 51 29 19 19 13 11 19 20 16 14 8 11 3 5 9 3 5 6 7 9 8 6 6 14 26 28 30 36 48 54 41 30
48 53 57 58 55 55 56 55 50 48 46 43 40 38 35 33 26 22 32 33 29 18 10 19 26 51 41 33 36 42 34 12 13 10 9 6 7 10 4 9 10 8 16 10 10 19 39 7 37 41 47 41 27 19
51 55 59 55 55 55 55 53 50 48 46 45 43 38 34 31 29 28 34 37 35 28 9 28 60 9 10 8 16 29 51 52 19 6 6 5 9 6 7 7 5 6 8 6 7 33 24 22 34 53 53 41 40 33
51 57 55 53 54 54 53 52 51 48 47 43 42 41 37 28 21 18 9 2 6 24 8 7 16 14 15 20 10 25 38 35 25 7 7 9 11 6 5 4 5 14 20 14 12 40 22 28 22 43 44 47 43 46
53 53 52 52 52 53 53 52 50 49 47 43 42 41 32 26 19 15 8 10 16 10 8 10 10 9 17 7 2 9 23 19 18 9 9 8 8 10 4 6 3 17 19 24 21 27 20 26 23 39 46 51 59 45
51 52 52 50 50 51 50 50 50 49 44 42 41 28 20 15 18 22 13 23 14 14 8 6 8 11 5 4 3 10 12 17 14 8 7 6 5 4 6 12 16 14 18 20 26 24 20 22 28 32 37 44 51 53
51 51 50 49 49 48 49 49 50 47 44 45 31 11 11 5 8 3 10 17 31 16 7 6 6 6 8 5 4 5 8 6 7 5 5 3 3 7 6 8 11 16 12 18 19 27 30 32 30 33 31 35 39 45
50 48 48 47 46 45 45 44 46 46 48 34 15 3 6 4 11 17 5 6 20 15 13 9 8 7 9 4 4 4 4 2 4 7 3 4 5 17 15 6 10 14 14 17 21 29 33 36 35 34 36 29 27 31
46 45 45 43 42 41 41 39 40 48 43 32 20 7 15 14 11 6 7 9 12 7 12 12 17 15 10 7 4 2 4 1 4 3 4 2 5 4 11 8 5 10 13 15 18 21 27 30 29 29 33 32 25 22
43 41 41 39 40 37 34 33 36 47 41 39 29 29 17 5 8 6 6 6 9 8 8 6 8 16 8 13 5 4 4 2 4 7 2 5 5 9 15 13 4 9 14 15 15 20 27 34 35 30 30 28 24 18
39 38 36 36 38 39 35 34 37 43 44 15 3 7 6 6 9 10 11 8 7 9 5 8 6 6 7 10 6 3 4 6 4 3 5 7 2 14 17 16 15 6 10 15 16 17 25 34 42 44 36 30 23 23
39 33 30 32 34 32 35 38 38 38 21 4 5 10 10 10 11 10 7 1 4 7 10 12 8 9 12 9 4 5 2 2 3 4 7 3 9 22 26 20 18 14 6 8 15 14 21 33 35 41 42 41 31 27
34 30 29 22 30 39 40 40 38 34 10 8 8 10 11 14 13 11 10 8 12 15 10 13 10 6 1 2 4 2 4 4 6 7 5 4 6 25 28 24 18 21 13 4 6 8 14 23 29 33 38 38 40 39
31 29 18 27 34 37 39 42 39 16 8 9 12 11 16 15 14 8 4 9 12 16 22 7 5 3 6 3 6 11 8 8 5 7 10 5 8 21 26 22 19 23 18 13 5 5 9 16 23 27 31 37 42 43
25 17 27 32 38 41 39 33 7 5 8 8 10 14 25 27 24 20 10 22 25 11 4 5 5 7 2 3 4 3 5 4 9 19 25 15 5 20 24 20 24 23 17 17 10 7 8 12 18 21 29 34 38 43
22 25 27 32 36 39 24 7 5 7 10 12 12 15 13 22 28 34 29 28 11 8 7 3 10 4 5 5 5 3 12 23 14 21 29 26 12 18 22 13 20 22 22 19 12 11 11 11 12 17 23 27 33 36
23 25 24 22 28 25 10 5 3 9 12 22 23 25 26 29 35 34 33 36 30 15 9 9 9 7 8 5 6 12 15 19 23 31 33 32 25 18 26 26 25 24 29 25 21 18 17 14 12 16 17 20 27 31
14 14 17 20 20 8 6 6 8 11 11 16 30 25 31 36 37 38 40 31 15 9 10 7 6 8 10 15 24 30 33 29 27 37 39 32 23 15 16 21 31 29 31 30 32 30 23 20 18 16 18 19 21 27
10 20 22 16 3 5 4 8 8 9 17 14 30 36 38 22 23 17 15 14 2 4 6 11 20 25 28 29 31 30 32 27 29 31 42 42 34 26 25 29 30 34 36 38 37 34 28 25 25 23 22 20 21 24
18 22 12 13 7 3 6 7 11 22 12 20 25 23 20 14 12 10 19 7 7 10 11 22 29 35 37 34 34 31 30 37 35 33 40 46 44 35 21 31 38 40 41 44 42 38 36 32 28 25 24 26 23 23
12 8 5 7 4 3 8 13 6 7 7 16 26 11 9 13 14 24 6 11 7 25 29 32 34 29 31 35 33 29 28 32 31 30 34 36 38 35 31 28 31 43 39 46 46 44 41 37 34 31 31 30 28 28
6 3 3 6 5 7 13 5 7 8 8 11 9 12 9 10 18 7 6 14 41 42 44 42 41 37 31 28 31 36 39 36 34 30 24 28 31 28 22 30 31 45 38 39 46 45 46 46 44 39 33 31 29 28
4 3 2 4 3 4 5 6 5 4 6 15 7 7 8 14 5 7 5 18 51 54 59 57 53 42 38 39 32 33 37 36 37 40 30 21 21 20 18 23 30 39 40 41 48 49 46 50 51 48 40 35 30 27
5 3 4 2 2 4 5 7 5 9 12 5 5 14 11 6 7 9 14 38 50 57 64 63 60 50 46 48 45 40 34 27 27 29 27 21 18 21 21 19 32 41 43 46 47 47 55 55 58 55 48 41 35 30
4 2 4 7 5 4 8 10 12 5 6 6 7 8 7 7 8 11 27 44 53 53 53 54 51 52 52 56 65 52 25 19 24 16 16 13 3 12 18 21 26 30 26 34 44 45 49 55 59 61 54 46 41 34
4 3 5 4 5 6 6 6 5 4 4 5 13 5 6 6 7 19 31 45 43 44 45 44 49 51 53 63 66 68 61 39 24 10 34 42 40 30 19 10 15 29 32 23 33 38 41 48 52 60 61 52 47 40
5 5 5 8 6 7 8 7 6 5 4 3 4 4 7 6 16 21 31 33 36 39 46 53 56 53 51 52 62 68 67 68 70 67 66 58 48 42 31 23 15 14 18 22 21 19 19 37 34 32 48 57 51 46
5 10 4 5 5 6 9 14 11 14 11 5 3 17 16 14 31 31 30 34 39 41 39 43 48 53 58 61 58 62 63 63 62 60 55 53 49 40 37 31 21 14 14 17 19 22 26 33 37 36 41 50 65 61
8 8 5 8 8 9 11 17 9 11 10 2 6 11 18 11 9 36 40 36 35 36 41 45 46 50 52 54 57 57 61 58 56 53 48 42 41 41 40 39 39 25 16 15 16 19 19 24 29 33 43 49 57 68
14 13 7 4 7 12 24 6 6 10 10 6 5 11 11 7 7 18 40 36 32 35 37 37 40 43 43 44 43 43 44 46 48 49 48 52 57 55 52 45 41 34 30 23 20 14 10 18 23 30 36 44 49 64
10 12 12 7 6 5 3 7 7 7 7 6 6 10 10 7 7 13 20 30 31 29 25 25 25 29 34 36 37 38 38 38 38 45 49 52 53 52 55 55 48 43 38 37 36 29 23 14 5 5 17 29 42 50
Wind_Direction_500mb
324 330 331 327 325 324 324 325 325 325 325 325 324 321 323 316 303 296 286 284 274 267 283 272 273 250 259 222 240 305 321 155 291 9 354 338 301 332 299 273 302 293 307 263 214 236 256 354 323 265 317 301 296 291
324 330 319 323 326 326 326 327 327 328 328 327 325 320 318 311 273 273 292 293 287 277 273 285 285 282 269 261 251 253 274 310 292 303 231 279 282 280 304 299 291 293 230 288 250 289 272 305 236 282 289 283 294 290
325 321 324 325 325 326 330 328 327 327 326 326 323 321 313 305 300 270 276 289 296 290 297 288 293 285 270 328 226 218 239 237 216 244 221 244 264 252 280 275 284 286 327 265 296 244 274 303 299 292 304 291 281 273
320 321 322 324 326 329 332 330 330 329 327 325 324 321 317 314 297 266 269 272 271 274 280 281 298 298 291 269 251 251 241 240 258 230 233 254 261 194 258 276 278 287 304 276 249 279 310 193 343 335 341 357 20 24
317 318 321 322 325 328 330 328 329 330 330 329 328 324 320 316 308 298 287 282 257 231 277 297 312 3 349 315 243 242 236 241 268 253 232 244 256 261 229 247 265 303 314 310 292 309 321 324 353 2 352 357 27 29
315 319 321 321 324 328 326 326 328 330 327 326 322 319 314 305 301 318 315 37 351 214 269 290 306 305 331 336 277 226 224 230 233 240 245 244 251 244 260 271 269 314 334 321 300 323 325 358 339 6 352 16 32 42
315 318 318 321 325 326 327 327 327 328 327 327 322 315 305 292 259 226 247 287 320 186 255 282 282 280 322 343 100 171 204 214 227 246 228 242 258 221 295 274 341 337 342 344 355 5 354 355 355 8 8 15 32 46
314 316 317 322 325 325 326 325 327 332 334 328 325 318 314 280 245 257 272 261 237 211 245 270 276 302 318 291 205 187 190 210 227 253 247 239 241 233 257 279 312 332 340 3 17 24 9 359 15 11 14 29 35 21
314 316 318 323 324 324 325 326 329 335 335 331 326 310 295 324 187 243 270 285 228 207 272 241 273 296 327 284 260 228 222 218 213 244 243 216 193 242 261 295 346 354 4 351 26 33 23 15 7 16 18 21 31 19
313 314 319 321 322 324 326 329 331 335 340 340 336 269 239 235 269 285 248 206 183 216 231 250 218 261 296 302 273 264 208 277 239 216 216 217 262 268 263 272 352 9 31 22 27 21 16 17 16 21 19 24 27 20
311 315 320 319 319 323 327 333 334 337 346 0 343 295 288 287 291 230 232 212 196 241 221 234 232 243 241 222 274 248 309 227 268 68 284 271 264 227 165 139 21 67 50 55 51 33 29 22 19 24 23 26 29 33
313 320 319 316 317 320 325 329 334 338 341 322 300 299 301 274 237 236 210 229 203 238 201 213 256 215 234 214 226 210 266 242 254 328 271 249 248 186 165 145 130 85 77 72 43 32 28 29 30 31 35 35 40 41
316 320 316 316 317 319 318 329 330 329 332 328 306 263 246 226 227 214 213 200 210 184 65 9 311 248 187 202 239 232 232 244 313 234 250 236 118 178 168 155 148 128 93 81 47 46 36 32 35 39 39 35 58 63
314 324 321 321 320 326 331 327 328 331 334 297 267 260 218 216 229 220 237 9 69 332 310 286 289 242 194 174 171 228 161 294 297 249 244 224 208 175 175 173 158 147 138 70 70 56 42 36 41 45 47 44 53 63
320 326 321 321 324 322 323 320 318 317 266 258 221 241 239 240 262 275 289 281 292 299 328 310 232 235 252 221 200 150 177 245 232 245 240 250 183 173 171 172 172 164 161 139 66 69 50 44 41 46 47 53 54 61
323 336 341 326 318 318 320 315 316 307 239 242 238 263 268 293 286 281 281 281 353 321 311 228 248 248 230 242 195 207 177 226 249 233 262 288 177 177 172 169 168 166 163 162 123 104 78 50 47 52 51 56 58 60
328 339 327 328 326 328 328 316 307 238 256 258 270 285 279 286 284 296 314 313 326 315 267 220 235 230 39 231 246 237 222 243 271 314 326 327 231 176 164 153 162 164 160 164 139 129 111 67 51 64 66 65 64 66
333 335 336 330 334 341 341 6 305 269 264 272 279 315 308 286 290 297 297 308 315 306 276 272 315 193 239 226 210 155 287 298 344 350 334 326 311 215 210 191 182 182 171 161 148 133 118 94 84 83 78 75 72 70
341 341 341 341 344 344 334 351 324 281 276 298 293 301 304 300 304 305 301 303 300 282 269 283 248 214 223 257 312 312 337 306 323 335 327 316 287 258 235 231 211 199 182 169 162 150 129 116 112 103 90 84 79 75
354 359 351 327 319 323 324 297 288 279 284 304 306 312 311 296 292 292 297 300 253 216 207 224 275 26 348 320 313 307 308 311 308 313 307 323 314 261 226 210 196 189 182 177 168 166 158 142 131 124 115 104 93 87
16 352 344 350 29 193 284 305 287 278 298 294 295 306 300 309 304 295 311 323 119 22 337 10 336 321 314 309 316 317 314 314 290 282 285 295 304 308 254 225 202 200 196 189 184 182 176 165 151 143 139 130 120 113
347 342 2 24 25 353 276 262 266 287 284 282 309 314 294 301 312 352 330 34 67 19 357 332 325 319 313 312 314 324 325 309 302 275 256 274 281 274 273 237 220 203 206 202 197 196 189 181 167 154 149 145 138 130
339 29 39 14 355 288 285 309 283 287 290 312 321 301 324 318 326 343 61 31 27 354 348 344 340 330 314 317 323 330 334 325 316 301 279 265 269 272 260 251 239 219 208 204 204 200 196 193 183 171 163 161 155 147
83 80 55 20 359 299 315 276 266 292 294 330 309 306 319 301 314 340 65 24 352 360 6 7 10 360 353 339 331 331 330 325 319 311 308 286 276 279 258 243 242 220 226 223 208 204 201 197 192 187 180 171 165 163
181 76 64 318 225 286 286 288 278 308 309 325 297 305 335 325 296 57 40 5 354 357 3 12 14 14 1 1 347 331 333 333 325 315 318 307 283 258 241 242 224 217 217 208 210 211 204 205 198 194 189 184 175 173
89 165 153 219 229 226 321 306 311 326 315 293 293 333 340 304 11 39 1 348 348 353 8 10 3 7 14 17 6 355 341 336 330 324 318 308 265 244 242 255 226 218 212 214 217 212 212 208 205 200 196 194 186 182
116 239 219 232 250 298 288 277 282 275 277 295 330 335 339 351 25 10 345 356 352 9 20 19 16 24 24 22 28 30 22 63 62 52 46 28 314 218 222 217 222 222 219 213 209 213 214 212 209 207 202 198 194 193
190 211 219 200 231 234 255 264 257 248 263 291 321 347 24 36 354 334 337 356 4 15 19 19 25 29 34 36 34 34 41 57 86 139 83 79 78 85 101 141 200 203 210 224 218 221 221 219 216 214 208 204 200 199
199 206 224 269 241 218 222 236 254 245 265 294 338 11 92 69 7 357 4 10 24 29 27 23 25 30 36 42 44 41 40 41 41 42 37 32 37 44 67 82 115 163 177 179 196 213 227 201 194 208 201 218 215 207
209 189 212 243 237 232 223 215 239 262 235 250 240 115 109 85 43 36 32 30 30 30 30 29 27 28 30 31 34 40 41 40 40 35 34 33 27 25 29 49 67 100 150 173 191 201 197 202 213 225 225 222 214 206
162 177 228 231 254 247 283 306 305 259 253 224 209 182 155 154 47 29 30 28 27 26 27 31 34 31 29 28 30 32 37 38 44 44 40 36 39 37 37 36 40 55 92 125 152 173 189 207 218 220 223 230 223 212
184 203 213 245 278 299 306 218 228 169 147 136 76 144 133 100 62 15 14 18 24 28 30 30 30 30 30 32 34 37 36 36 36 35 36 40 41 42 42 45 44 44 56 72 82 100 171 212 224 231 235 233 226 216
205 218 224 251 257 276 278 302 219 119 103 102 91 82 90 89 89 17 16 17 22 19 14 13 18 22 27 30 32 33 36 38 38 41 42 42 43 44 45 49 54 55 56 61 66 70 69 67 81 221 229 219 206 197
Wind_Speed_850mb
43 45 50 53 56 59 61 62 61 55 50 45 41 37 34 19 11 20 29 29 31 31 54 52 44 25 17 12 5 18 21 2 5 10 6 6 6 7 7 8 13 5 7 4 7 10 8 15 20 5 16 40 45 41
44 47 52 57 61 60 59 58 54 50 48 43 41 37 32 23 19 20 31 27 24 36 54 71 79 77 76 71 39 14 11 18 6 4 1 4 6 5 9 7 7 6 4 6 6 6 21 28 28 45 53 46 54 40
45 50 54 59 59 55 56 56 51 48 46 43 42 39 32 27 20 24 29 30 32 31 51 29 19 19 13 11 19 20 16 14 8 11 3 5 9 3 5 6 7 9 8 6 6 14 26 28 30 36 48 54 41 30
48 53 57 58 55 55 56 55 50 48 46 43 40 38 35 33 26 22 32 33 29 18 10 19 26 51 41 33 36 42 34 12 13 10 9 6 7 10 4 9 10 8 16 10 10 19 39 7 37 41 47 41 27 19
51 55 59 55 55 55 55 53 50 48 46 45 43 38 34 31 29 28 34 37 35 28 9 28 60 9 10 8 16 29 51 52 19 6 6 5 9 6 7 7 5 6 8 6 7 33 24 22 34 53 53 41 40 33
51 57 55 53 54 54 53 52 51 48 47 43 42 41 37 28 21 18 9 2 6 24 8 7 16 14 15 20 10 25 38 35 25 7 7 9 11 6 5 4 5 14 20 14 12 40 22 28 22 43 44 47 43 46
53 53 52 52 52 53 53 52 50 49 47 43 42 41 32 26 19 15 8 10 16 10 8 10 10 9 17 7 2 9 23 19 18 9 9 8 8 10 4 6 3 17 19 24 21 27 20 26 23 39 46 51 59 45
51 52 52 50 50 51 50 50 50 49 44 42 41 28 20 15 18 22 13 23 14 14 8 6 8 11 5 4 3 10 12 17 14 8 7 6 5 4 6 12 16 14 18 20 26 24 20 22 28 32 37 44 51 53
51 51 50 49 49 48 49 49 50 47 44 45 31 11 11 5 8 3 10 17 31 16 7 6 6 6 8 5 4 5 8 6 7 5 5 3 3 7 6 8 11 16 12 18 19 27 30 32 30 33 31 35 39 45
50 48 48 47 46 45 45 44 46 46 48 34 15 3 6 4 11 17 5 6 20 15 13 9 8 7 9 4 4 4 4 2 4 7 3 4 5 17 15 6 10 14 14 17 21 29 33 36 35 34 36 29 27 31
46 45 45 43 42 41 41 39 40 48 43 32 20 7 15 14 11 6 7 9 12 7 12 12 17 15 10 7 4 2 4 1 4 3 4 2 5 4 11 8 5 10 13 15 18 21 27 30 29 29 33 32 25 22
43 41 41 39 40 37 34 33 36 47 41 39 29 29 17 5 8 6 6 6 9 8 8 6 8 16 8 13 5 4 4 2 4 7 2 5 5 9 15 13 4 9 14 15 15 20 27 34 35 30 30 28 24 18
39 38 36 36 38 39 35 34 37 43 44 15 3 7 6 6 9 10 11 8 7 9 5 8 6 6 7 10 6 3 4 6 4 3 5 7 2 14 17 16 15 6 10 15 16 17 25 34 42 44 36 30 23 23
39 33 30 32 34 32 35 38 38 38 21 4 5 10 10 10 11 10 7 1 4 7 10 12 8 9 12 9 4 5 2 2 3 4 7 3 9 22 26 20 18 14 6 8 15 14 21 33 35 41 42 41 31 27
34 30 29 22 30 39 40 40 38 34 10 8 8 10 11 14 13 11 10 8 12 15 10 13 10 6 1 2 4 2 4 4 6 7 5 4 6 25 28 24 18 21 13 4 6 8 14 23 29 33 38 38 40 39
31 29 18 27 34 37 39 42 39 16 8 9 12 11 16 15 14 8 4 9 12 16 22 7 5 3 6 3 6 11 8 8 5 7 10 5 8 21 26 22 19 23 18 13 5 5 9 16 23 27 31 37 42 43
25 17 27 32 38 41 39 33 7 5 8 8 10 14 25 27 24 20 10 22 25 11 4 5 5 7 2 3 4 3 5 4 9 19 25 15 5 20 24 20 24 23 17 17 10 7 8 12 18 21 29 34 38 43
22 25 27 32 36 39 24 7 5 7 10 12 12 15 13 22 28 34 29 28 11 8 7 3 10 4 5 5 5 3 12 23 14 21 29 26 12 18 22 13 20 22 22 19 12 11 11 11 12 17 23 27 33 36
23 25 24 22 28 25 10 5 3 9 12 22 23 25 26 29 35 34 33 36 30 15 9 9 9 7 8 5 6 12 15 19 23 31 33 32 25 18 26 26 25 24 29 25 21 18 17 14 12 16 17 20 27 31
14 14 17 20 20 8 6 6 8 11 11 16 30 25 31 36 37 38 40 31 15 9 10 7 6 8 10 15 24 30 33 29 27 37 39 32 23 15 16 21 31 29 31 30 32 30 23 20 18 16 18 19 21 27
10 20 22 16 3 5 4 8 8 9 17 14 30 36 38 22 23 17 15 14 2 4 6 11 20 25 28 29 31 30 32 27 29 31 42 42 34 26 25 29 30 34 36 38 37 34 28 25 25 23 22 20 21 24
18 22 12 13 7 3 6 7 11 22 12 20 25 23 20 14 12 10 19 7 7 10 11 22 29 35 37 34 34 31 30 37 35 33 40 46 44 35 21 31 38 40 41 44 42 38 36 32 28 25 24 26 23 23
12 8 5 7 4 3 8 13 6 7 7 16 26 11 9 13 14 24 6 11 7 25 29 32 34 29 31 35 33 29 28 32 31 30 34 36 38 35 31 28 31 43 39 46 46 44 41 37 34 31 31 30 28 28
6 3 3 6 5 7 13 5 7 8 8 11 9 12 9 10 18 7 6 14 41 42 44 42 41 37 31 28 31 36 39 36 34 30 24 28 31 28 22 30 31 45 38 39 46 45 46 46 44 39 33 31 29 28
4 3 2 4 3 4 5 6 5 4 6 15 7 7 8 14 5 7 5 18 51 54 59 57 53 42 38 39 32 33 37 36 37 40 30 21 21 20 18 23 30 39 40 41 48 49 46 50 51 48 40 35 30 27
5 3 4 2 2 4 5 7 5 9 12 5 5 14 11 6 7 9 14 38 50 57 64 63 60 50 46 48 45 40 34 27 27 29 27 21 18 21 21 19 32 41 43 46 47 47 55 55 58 55 48 41 35 30
4 2 4 7 5 4 8 10 12 5 6 6 7 8 7 7 8 11 27 44 53 53 53 54 51 52 52 56 65 52 25 19 24 16 16 13 3 12 18 21 26 30 26 34 44 45 49 55 59 61 54 46 41 34
4 3 5 4 5 6 6 6 5 4 4 5 13 5 6 6 7 19 31 45 43 44 45 44 49 51 53 63 66 68 61 39 24 10 34 42 40 30 19 10 15 29 32 23 33 38 41 48 52 60 61 52 47 40
5 5 5 8 6 7 8 7 6 5 4 3 4 4 7 6 16 21 31 33 36 39 46 53 56 53 51 52 62 68 67 68 70 67 66 58 48 42 31 23 15 14 18 22 21 19 19 37 34 32 48 57 51 46
5 10 4 5 5 6 9 14 11 14 11 5 3 17 16 14 31 31 30 34 39 41 39 43 48 53 58 61 58 62 63 63 62 60 55 53 49 40 37 31 21 14 14 17 19 22 26 33 37 36 41 50 65 61
8 8 5 8 8 9 11 17 9 11 10 2 6 11 18 11 9 36 40 36 35 36 41 45 46 50 52 54 57 57 61 58 56 53 48 42 41 41 40 39 39 25 16 15 16 19 19 24 29 33 43 49 57 68
14 13 7 4 7 12 24 6 6 10 10 6 5 11 11 7 7 18 40 36 32 35 37 37 40 43 43 44 43 43 44 46 48 49 48 52 57 55 52 45 41 34 30 23 20 14 10 18 23 30 36 44 49 64
10 12 12 7 6 5 3 7 7 7 7 6 6 10 10 7 7 13 20 30 31 29 25 25 25 29 34 36 37 38 38 38 38 45 49 52 53 52 55 55 48 43 38 37 36 29 23 14 5 5 17 29 42 50
Wind_Direction_850mb
324 330 331 327 325 324 324 325 325 325 325 325 324 321 323 316 303 296 286 284 274 267 283 272 273 250 259 222 240 305 321 155 291 9 354 338 301 332 299 273 302 293 307 263 214 236 256 354 323 265 317 301 296 291
324 330 319 323 326 326 326 327 327 328 328 327 325 320 318 311 273 273 292 293 287 277 273 285 285 282 269 261 251 253 274 310 292 303 231 279 282 280 304 299 291 293 230 288 250 289 272 305 236 282 289 283 294 290
325 321 324 325 325 326 330 328 327 327 326 326 323 321 313 305 300 270 276 289 296 290 297 288 293 285 270 328 226 218 239 237 216 244 221 244 264 252 280 275 284 286 327 265 296 244 274 303 299 292 304 291 281 273
320 321 322 324 326 329 332 330 330 329 327 325 324 321 317 314 297 266 269 272 271 274 280 281 298 298 291 269 251 251 241 240 258 230 233 254 261 194 258 276 278 287 304 276 249 279 310 193 343 335 341 357 20 24
317 318 321 322 325 328 330 328 329 330 330 329 328 324 320 316 308 298 287 282 257 231 277 297 312 3 349 315 243 242 236 241 268 253 232 244 256 261 229 247 265 303 314 310 292 309 321 324 353 2 352 357 27 29
315 319 321 321 324 328 326 326 328 330 327 326 322 319 314 305 301 318 315 37 351 214 269 290 306 305 331 336 277 226 224 230 233 240 245 244 251 244 260 271 269 314 334 321 300 323 325 358 339 6 352 16 32 42
315 318 318 321 325 326 327 327 327 328 327 327 322 315 305 292 259 226 247 287 320 186 255 282 282 280 322 343 100 171 204 214 227 246 228 242 258 221 295 274 341 337 342 344 355 5 354 355 355 8 8 15 32 46
314 316 317 322 325 325 326 325 327 332 334 328 325 318 314 280 245 257 272 261 237 211 245 270 276 302 318 291 205 187 190 210 227 253 247 239 241 233 257 279 312 332 340 3 17 24 9 359 15 11 14 29 35 21
314 316 318 323 324 324 325 326 329 335 335 331 326 310 295 324 187 243 270 285 228 207 272 241 273 296 327 284 260 228 222 218 213 244 243 216 193 242 261 295 346 354 4 351 26 33 23 15 7 16 18 21 31 19
313 314 319 321 322 324 326 329 331 335 340 340 336 269 239 235 269 285 248 206 183 216 231 250 218 261 296 302 273 264 208 277 239 216 216 217 262 268 263 272 352 9 31 22 27 21 16 17 16 21 19 24 27 20
311 315 320 319 319 323 327 333 334 337 346 0 343 295 288 287 291 230 232 212 196 241 221 234 232 243 241 222 274 248 309 227 268 68 284 271 264 227 165 139 21 67 50 55 51 33 29 22 19 24 23 26 29 33
313 320 319 316 317 320 325 329 334 338 341 322 300 299 301 274 237 236 210 229 203 238 201 213 256 215 234 214 226 210 266 242 254 328 271 249 248 186 165 145 130 85 77 72 43 32 28 29 30 31 35 35 40 41
316 320 316 316 317 319 318 329 330 329 332 328 306 263 246 226 227 214 213 200 210 184 65 9 311 248 187 202 239 232 232 244 313 234 250 236 118 178 168 155 148 128 93 81 47 46 36 32 35 39 39 35 58 63
314 324 321 321 320 326 331 327 328 331 334 297 267 260 218 216 229 220 237 9 69 332 310 286 289 242 194 174 171 228 161 294 297 249 244 224 208 175 175 173 158 147 138 70 70 56 42 36 41 45 47 44 53 63
320 326 321 321 324 322 323 320 318 317 266 258 221 241 239 240 262 275 289 281 292 299 328 310 232 235 252 221 200 150 177 245 232 245 240 250 183 173 171 172 172 164 161 139 66 69 50 44 41 46 47 53 54 61
323 336 341 326 318 318 320 315 316 307 239 242 238 263 268 293 286 281 281 281 353 321 311 228 248 248 230 242 195 207 177 226 249 233 262 288 177 177 172 169 168 166 163 162 123 104 78 50 47 52 51 56 58 60
328 339 327 328 326 328 328 316 307 238 256 258 270 285 279 286 284 296 314 313 326 315 267 220 235 230 39 231 246 237 222 243 271 314 326 327 231 176 164 153 162 164 160 164 139 129 111 67 51 64 66 65 64 66
333 335 336 330 334 341 341 6 305 269 264 272 279 315 308 286 290 297 297 308 315 306 276 272 315 193 239 226 210 155 287 298 344 350 334 326 311 215 210 191 182 182 171 161 148 133 118 94 84 83 78 75 72 70
341 341 341 341 344 344 334 351 324 281 276 298 293 301 304 300 304 305 301 303 300 282 269 283 248 214 223 257 312 312 337 306 323 335 327 316 287 258 235 231 211 199 182 169 162 150 129 116 112 103 90 84 79 75
354 359 351 327 319 323 324 297 288 279 284 304 306 312 311 296 292 292 297 300 253 216 207 224 275 26 348 320 313 307 308 311 308 313 307 323 314 261 226 210 196 189 182 177 168 166 158 142 131 124 115 104 93 87
16 352 344 350 29 193 284 305 287 278 298 294 295 306 300 309 304 295 311 323 119 22 337 10 336 321 314 309 316 317 314 314 290 282 285 295 304 308 254 225 202 200 196 189 184 182 176 165 151 143 139 130 120 113
347 342 2 24 25 353 276 262 266 287 284 282 309 314 294 301 312 352 330 34 67 19 357 332 325 319 313 312 314 324 325 309 302 275 256 274 281 274 273 237 220 203 206 202 197 196 189 181 167 154 149 145 138 130
339 29 39 14 355 288 285 309 283 287 290 312 321 301 324 318 326 343 61 31 27 354 348 344 340 330 314 317 323 330 334 325 316 301 279 265 269 272 260 251 239 219 208 204 204 200 196 193 183 171 163 161 155 147
83 80 55 20 359 299 315 276 266 292 294 330 309 306 319 301 314 340 65 24 352 360 6 7 10 360 353 339 331 331 330 325 319 311 308 286 276 279 258 243 242 220 226 223 208 204 201 197 192 187 180 171 165 163
181 76 64 318 225 286 286 288 278 308 309 325 297 305 335 325 296 57 40 5 354 357 3 12 14 14 1 1 347 331 333 333 325 315 318 307 283 258 241 242 224 217 217 208 210 211 204 205 198 194 189 184 175 173
89 165 153 219 229 226 321 306 311 326 315 293 293 333 340 304 11 39 1 348 348 353 8 10 3 7 14 17 6 355 341 336 330 324 318 308 265 244 242 255 226 218 212 214 217 212 212 208 205 200 196 194 186 182
116 239 219 232 250 298 288 277 282 275 277 295 330 335 339 351 25 10 345 356 352 9 20 19 16 24 24 22 28 30 22 63 62 52 46 28 314 218 222 217 222 222 219 213 209 213 214 212 209 207 202 198 194 193
190 211 219 200 231 234 255 264 257 248 263 291 321 347 24 36 354 334 337 356 4 15 19 19 25 29 34 36 34 34 41 57 86 139 83 79 78 85 101 141 200 203 210 224 218 221 221 219 216 214 208 204 200 199
199 206 224 269 241 218 222 236 254 245 265 294 338 11 92 69 7 357 4 10 24 29 27 23 25 30 36 42 44 41 40 41 41 42 37 32 37 44 67 82 115 163 177 179 196 213 227 201 194 208 201 218 215 207
209 189 212 243 237 232 223 215 239 262 235 250 240 115 109 85 43 36 32 30 30 30 30 29 27 28 30 31 34 40 41 40 40 35 34 33 27 25 29 49 67 100 150 173 191 201 197 202 213 225 225 222 214 206
162 177 228 231 254 247 283 306 305 259 253 224 209 182 155 154 47 29 30 28 27 26 27 31 34 31 29 28 30 32 37 38 44 44 40 36 39 37 37 36 40 55 92 125 152 173 189 207 218 220 223 230 223 212
184 203 213 245 278 299 306 218 228 169 147 136 76 144 133 100 62 15 14 18 24 28 30 30 30 30 30 32 34 37 36 36 36 35 36 40 41 42 42 45 44 44 56 72 82 100 171 212 224 231 235 233 226 216
205 218 224 251 257 276 278 302 219 119 103 102 91 82 90 89 89 17 16 17 22 19 14 13 18 22 27 30 32 33 36 38 38 41 42 42 43 44 45 49 54 55 56 61 66 70 69 67 81 221 229 219 206 197